Regional Weather Roundup
Issued by NWS Upton, NY

Current Version | Previous Version | Graphics & Text | Print | Product List | Glossary Off
Versions: 1 2 3 4 5 6 7 8 9 10 11 12 13 14 15 16 17 18 19 20 21 22 23 24 25 26 27 28 29 30 31 32 33 34 35 36 37 38 39 40 41 42 43 44 45 46 47 48 49 50

410
ASUS41 KOKX 270405
RWROKX

REGIONAL WEATHER ROUNDUP
NATIONAL WEATHER SERVICE NEW YORK NY
1200 AM EDT FRI MAY 27 2016

NOTE: "FAIR" INDICATES FEW OR NO CLOUDS BELOW 12,000 FEET WITH NO
SIGNIFICANT WEATHER AND/OR OBSTRUCTIONS TO VISIBILITY.

NYZ071-072-176-178-NJZ106-104-270500-
NEW YORK CITY METRO AREA


CITY           SKY/WX    TMP DP  RH WIND       PRES   REMARKS
CENTRAL PARK   PTCLDY    76  51  41 VRB5      30.08S
LAGUARDIA APRT PTCLDY    71  64  78 S7        30.05S
KENNEDY INTL   MOCLDY    65  60  84 S6        30.08S
NEWARK/LIBERTY PTCLDY    77  53  43 SE3       30.05S
BRNX BOT. GARD   N/A     70  55  60 E3        30.06F
TETERBORO      PTCLDY    73  52  47 CALM      30.04S
$$

NYZ177-179-078>081-270500-
LONG ISLAND NEW YORK

CITY           SKY/WX    TMP DP  RH WIND       PRES   REMARKS
FARMINGDALE    PTCLDY    67  58  72 S6        30.08S
ISLIP          PTCLDY    65  57  75 S5        30.08S
SHIRLEY        PTCLDY    64  58  80 S6        30.10S
RIVERHEAD        N/A     64  57  77 CALM      30.07F
WESTHAMPTON    CLEAR     60  56  86 S5        30.11F
EAST HAMPTON   FAIR      60  56  88 S5        30.09F
MONTAUK POINT    N/A     62  57  83 CALM      30.11S
$$

NYZ052-065-067-270500-
HUDSON VALLEY

CITY           SKY/WX    TMP DP  RH WIND       PRES   REMARKS
WHITE PLAINS   CLEAR     67  52  58 CALM      30.07S
NEWBURGH       CLEAR     70  54  56 S7        30.06S
MONTGOMERY     PTCLDY    65  59  81 CALM      30.04S
POUGHKEEPSIE   CLOUDY    70  55  59 SE3       30.03S
ALBANY         CLOUDY    76  55  48 S10       30.01F
$$

NJZ001-105-106-008-010-013-015-019>022-104-270500-
NEW JERSEY

CITY           SKY/WX    TMP DP  RH WIND       PRES   REMARKS
NEWARK/LIBERTY PTCLDY    77  53  43 SE3       30.05S
TETERBORO      PTCLDY    73  52  47 CALM      30.04S
CALDWELL       CLEAR     71  56  58 CALM      30.06R
MORRISTOWN     PTCLDY    64  52  63 CALM      30.05F
SOMERVILLE     MOCLDY    68  59  73 CALM      30.03F
SUSSEX         MOCLDY    66  59  78 CALM      30.05S
ANDOVER          N/A     67  59  75 CALM      30.06F
TRENTON        PTCLDY    72  55  55 S6        30.05S
MILLVILLE      CLEAR     73  62  68 VRB5      30.07S
ATLANTIC CITY  CLEAR     69  61  75 S7        30.07F
WRIGHTSTOWN    CLEAR     69  60  73 SW5       30.04S
TOMS RIVER     CLEAR     70  57  64 S7        30.07F
BELMAR         PTCLDY    71  59  65 S5        30.08S
$$

PAZ047>061-062-071-270500-
EASTERN PENNSYLVANIA

CITY           SKY/WX    TMP DP  RH WIND       PRES   REMARKS
PHILADELPHIA   PTCLDY    74  59  59 CALM      30.06S
ALLENTOWN      PTCLDY    78  55  44 SW5       30.05S
SCRANTON       CLOUDY    76  59  55 CALM      30.04F
$$

CTZ002-004>006-009-010-012-RIZ004-006-007-MAZ004-011-015-270500-
SOUTHERN NEW ENGLAND
 IN CT

CITY           SKY/WX    TMP DP  RH WIND       PRES   REMARKS
BRADLEY INTL   PTCLDY    70  55  59 S6        30.06S
HARTFORD       CLEAR     71  54  54 S6        30.06S
DANBURY        CLOUDY    73  49  42 S7        30.08S
WTRBRY/OXFORD    N/A     68  48  49 S5        30.10R
BRIDGEPORT     CLEAR     69  55  60 S6        30.07S
MERIDEN        CLEAR     64  56  75 CALM      30.08R
NEW HAVEN      CLEAR     64  55  72 CALM      30.08S
CHESTER        FAIR      66  54  63 SW5       30.09S
GROTON         CLEAR     59  56  89 S5        30.09S
WILLIMANTIC    PTCLDY    67  56  67 CALM      30.09S

 IN RI

CITY           SKY/WX    TMP DP  RH WIND       PRES   REMARKS
PROVIDENCE     PTCLDY    62  56  80 CALM      30.09S
BLOCK ISLAND   CLEAR     62  55  77 SW13      30.10F
WESTERLY       CLEAR     62  54  74 S3        30.10S

 IN MA

CITY           SKY/WX    TMP DP  RH WIND       PRES   REMARKS
BOSTON         MOCLDY    59  55  87 VRB3      30.10R
WORCESTER      CLEAR     70  55  59 CALM      30.11S
WESTFIELD      CLOUDY    70  57  63 S5        30.06R
PROVINCETOWN   MOCLDY    61  54  77 SE10G17   30.12S
NANTUCKET      CLEAR     56  53  90 SE10      30.13S
$$

ANZ330-335-338-340-345-350-353-355-270500-
COASTAL MARINE OBSERVATIONS


STATION/POSITION TIME  SKY/WX   TEMP    WIND        PRES    VSBY  WAVE
                                AIR SEA DIR/SP/G                  HT/PER
                 (UTC)          (F)     (DEG/KT/KT) (MB)    (MI)  (FT/S)
NY HARB ENTRANCE 0250            63 59  190/ 12/ 14 1017.8          2/ 7
20S FIRE ISLAND  0250            60 59  190/ 10/ 12 1018.4          2/ 9
GREAT SOUTH BAY  0330            64 68  200/  8/ 10   N/A
23 SSW MONTAUK P 0350            59 57  210/ 10/ 12 1018.8          2/ 7
15 E BARNEGAT LI 0322               58                N/A           3/ 8
HUDSON CANYON    0250            60 56              1019.4          2/ 7
KINGS POINT      0306               60              1017.6
EXECUTION ROCKS  NOT AVBL
CENTRAL LI SOUND 0300            65     220/  4/  8   N/A           1
EASTERN LI SOUND 0300            58 54   80/  2/  4   N/A
ROBBINS REEF     0300                               1017.1
$$


>>>>>>>>>>>>>>>>>>>>>>>>>>>> KEY <<<<<<<<<<<<<<<<<<<<<<<<<<<
>                                                          <
>     SKY/WX - SKY CONDITION/PRESENT WEATHER               <
>     TMP    - TEMPERATURE IN FAHRENHEIT                   <
>     DP     - DEWPOINT IN FAHRENHEIT                      <
>     RH     - RELATIVE HUMIDITY IN PERCENT                <
>     WIND   - DIRECTION AND SPEED IN MPH                  <
>     PRES   - MEAN SEA LEVEL PRESSURE IN INCHES OF HG     <
>     WCI    - WIND CHILL INDEX                            <
>     VSB    - VISIBILITY IN MILES                         <
>     HX     - HEAT INDEX                                  <
>     TC     - TEMPERATURE IN CELSIUS                      <
>     VRB    - VARIABLE WIND DIRECTION                     <
>                                                          <
>>>>>>>>>>>>>>>>>>>>>>>>>>>> KEY <<<<<<<<<<<<<<<<<<<<<<<<<<<






USA.gov is the U.S. government's official web portal to all federal, state and local government web resources and services.